SCP
0 0 0 0 0 0 0 0 0 0 0 1 2 2 2 2 1 1 1 1 1 1 1 1 0 0 0 0 0 0 0 0 0 0 0 0 0 0 0 0 0 0 0
0 0 0 0 0 0 0 0 0 0 0 1 1 2 2 2 2 2 1 1 1 1 1 1 1 0 0 0 0 0 0 0 0 0 0 0 0 0 0 0 0 0 0
0 0 0 0 0 0 0 0 0 0 0 0 1 1 2 2 2 2 2 1 1 1 1 1 1 0 0 0 0 0 0 0 0 0 0 0 0 0 0 0 0 0 0
0 0 0 0 0 0 0 0 0 0 0 0 0 1 1 1 2 2 2 2 1 1 1 1 1 0 0 0 0 0 0 0 0 0 0 0 0 0 0 0 0 0 0
0 0 0 0 0 0 0 0 0 0 0 0 0 0 0 1 1 1 2 2 2 1 1 1 1 0 0 0 0 0 0 0 0 0 0 0 0 0 0 0 0 0 0
0 0 0 0 0 0 0 0 0 0 0 0 0 0 0 0 1 1 1 2 2 2 1 1 1 0 0 0 0 0 0 0 0 0 0 0 0 0 0 0 0 0 0
0 0 0 0 0 0 0 0 0 0 0 0 0 0 0 0 0 1 1 1 2 2 1 1 1 0 0 0 0 0 0 0 0 0 0 0 0 0 0 0 0 0 0
0 0 0 0 0 0 0 0 0 0 0 0 0 0 0 0 0 0 1 1 1 1 1 1 1 0 0 0 0 0 0 0 0 0 0 0 0 0 0 0 0 0 0
0 0 0 0 0 0 0 0 0 0 0 0 0 0 0 0 0 0 0 1 1 1 1 1 1 0 0 0 0 0 0 0 0 0 0 0 0 0 0 0 0 0 0
0 0 0 0 0 0 0 0 0 0 0 0 0 0 0 0 0 0 0 0 1 1 1 1 0 0 0 0 0 0 0 0 0 0 0 0 0 0 0 0 0 0 0
0 0 0 0 0 0 0 0 0 0 0 0 0 0 0 0 0 0 0 0 0 0 0 0 0 0 0 0 0 0 0 0 0 0 0 0 0 0 0 0 0 0 0
0 -0 0 0 0 0 0 0 0 0 0 0 0 0 0 0 0 0 0 0 0 0 0 0 0 0 0 0 0 0 0 0 0 0 0 0 0 0 0 0 0 0 0
0 -0 0 0 0 0 0 0 0 0 0 0 0 0 0 0 0 0 0 0 0 0 0 0 0 0 0 0 0 0 0 0 0 0 0 0 0 0 0 0 0 0 0
0 0 0 0 0 0 0 0 0 0 0 0 0 0 0 0 0 0 0 0 0 0 0 0 0 0 0 0 0 0 0 0 0 0 0 0 0 0 0 0 0 0 0
0 0 0 0 0 0 0 0 0 0 0 0 0 0 0 0 0 0 0 0 0 0 0 0 0 0 0 0 0 0 0 0 0 0 0 0 0 0 0 0 0 0 0
0 0 0 0 0 0 0 0 0 0 0 0 0 0 0 0 0 0 0 0 0 0 0 0 0 0 0 0 0 0 0 0 0 0 0 0 0 0 0 0 0 0 0
0 0 0 0 0 0 0 0 0 0 0 0 0 0 0 0 0 0 0 0 0 0 0 0 0 0 0 0 0 0 0 0 0 0 0 0 0 0 0 0 0 0 0
-0 -0 -0 -0 0 0 0 0 0 0 0 0 0 0 0 0 0 0 0 0 0 0 0 0 0 0 0 0 0 0 0 0 0 0 0 0 0 0 0 0 0 0 0
-0 -0 -0 -0 -0 -0 0 0 0 0 0 0 0 0 0 0 0 0 0 0 0 0 0 0 0 0 0 0 0 0 0 0 0 0 0 0 0 0 0 0 0 0 0
-0 -0 -0 -0 -0 -0 -0 0 0 0 0 0 0 0 0 0 0 0 0 0 0 0 0 0 0 0 0 0 0 0 0 0 0 0 0 0 0 0 0 0 0 0 0
0 -0 -0 -0 -0 -0 -0 0 0 0 0 0 0 0 0 0 0 0 0 0 0 0 0 0 0 0 0 0 0 0 0 0 0 0 0 0 0 0 0 0 0 0 0
0 0 0 0 -0 -0 -0 -0 -0 -0 -0 0 0 0 0 0 0 0 0 0 0 0 0 0 0 0 0 0 0 0 0 0 0 0 0 0 0 0 0 0 0 0 0
0 0 0 0 0 -0 -0 -0 -0 -0 0 0 0 0 0 0 0 0 0 0 0 0 0 0 0 0 0 0 0 0 0 0 0 0 0 0 0 0 0 0 0 0 0
0 0 0 0 0 0 0 -0 -0 0 0 0 -0 -0 -0 -0 -0 -0 -0 0 0 0 0 0 0 0 0 0 0 0 0 0 0 0 0 0 0 0 0 0 0 0 0
0 0 0 0 0 0 0 0 0 -0 -0 0 0 0 0 0 0 0 0 0 0 0 0 0 0 0 0 0 0 0 0 0 0 0 0 0 0 0 0 0 0 0 0
0 0 0 0 0 0 0 0 0 0 0 0 0 0 0 0 0 0 0 0 0 0 0 0 0 0 0 0 0 0 0 0 0 0 0 0 0 0 0 0 0 0 0
Wind_Speed
6 6 6 6 6 7 8 10 10 11 11 9 10 10 11 11 11 11 13 14 14 14 14 11 12 12 11 12 13 10 10 7 7 5 5 5 6 7 7 7 8 9 9
2 3 3 3 4 5 6 8 9 10 11 10 10 10 11 10 11 10 12 14 15 15 13 15 13 13 12 14 15 13 9 7 9 7 5 6 7 8 9 8 8 9 8
4 5 5 5 4 4 5 5 7 8 9 10 9 9 9 9 9 11 12 14 16 15 15 16 14 14 13 13 15 16 15 10 10 9 8 6 7 6 7 10 9 10 8
6 6 6 7 6 6 5 6 6 7 7 8 9 13 12 13 14 12 12 13 15 15 15 15 15 14 13 14 15 16 14 13 10 9 7 5 2 5 6 6 9 10 10
6 6 7 7 7 6 6 6 6 5 5 6 8 11 13 13 11 12 14 14 13 15 15 15 14 14 13 15 16 16 17 14 13 9 7 7 4 5 5 5 6 7 7
6 6 6 6 7 7 7 7 7 6 5 5 7 9 12 13 14 14 13 12 10 11 14 14 14 14 13 15 15 15 18 15 15 12 9 8 7 8 7 6 5 5 5
6 7 8 8 8 9 9 8 9 8 8 7 7 8 10 12 14 14 13 13 10 10 12 13 13 12 13 13 12 13 14 16 15 12 10 8 7 4 6 5 4 4 3
6 7 8 8 8 9 9 10 10 10 9 9 8 8 8 8 8 11 11 11 10 10 11 13 12 12 12 11 10 9 11 10 11 11 9 5 4 3 3 4 6 5 4
6 7 7 8 8 9 10 10 10 10 10 10 10 9 9 8 9 10 10 9 9 8 10 10 11 11 11 10 9 8 9 8 8 7 7 5 4 3 3 3 3 5 5
6 7 7 8 8 9 9 9 9 9 10 10 9 8 9 9 8 8 9 9 9 8 8 9 10 10 9 9 9 7 7 8 7 6 8 7 6 5 4 5 5 4 4
7 7 8 8 8 9 9 9 9 9 9 9 9 9 8 8 7 7 7 7 6 6 6 7 7 8 9 9 9 8 9 10 9 9 10 10 9 7 6 5 5 5 4
6 7 7 8 8 9 9 9 9 9 10 10 9 8 8 7 6 6 6 5 4 3 3 4 5 6 8 9 9 10 10 11 11 11 11 11 8 9 7 6 6 4 4
6 7 7 8 8 9 9 9 10 10 10 9 9 8 8 7 6 6 5 4 3 2 2 2 4 5 7 8 8 9 10 10 10 11 11 11 10 9 6 6 5 4 3
6 6 7 7 8 8 9 9 9 10 10 9 9 9 9 8 7 6 6 6 6 6 5 5 5 5 6 8 9 10 11 11 10 10 9 9 8 8 7 5 5 4 4
5 6 7 7 8 8 8 9 9 9 9 9 9 9 9 8 8 8 9 9 9 9 8 8 8 8 7 8 10 11 11 12 12 10 9 8 9 9 6 4 4 4 3
4 5 6 7 7 8 8 8 9 9 9 9 9 9 9 9 10 9 9 10 11 10 10 10 9 9 8 14 16 13 11 11 11 10 8 8 7 7 6 6 5 5 5
3 4 5 6 6 7 7 7 8 8 8 9 9 9 9 10 10 10 10 11 11 11 11 10 10 10 13 17 17 16 11 10 9 8 7 5 5 5 3 2 3 5 6
1 2 4 5 5 5 6 6 6 7 8 8 8 8 8 9 9 10 10 10 9 9 9 9 10 11 13 18 19 17 11 9 8 6 5 5 4 2 2 2 3 4 5
2 2 3 3 4 5 5 5 7 7 8 8 8 8 8 8 9 10 9 8 9 9 9 9 10 11 12 16 15 12 7 7 7 5 4 3 2 1 4 3 4 5 5
2 2 2 3 4 4 4 6 7 7 7 7 7 7 8 8 9 9 8 8 8 9 9 9 9 9 9 11 11 8 4 5 4 4 3 1 1 2 4 4 4 6 6
4 3 3 3 3 3 4 6 6 6 5 5 6 7 8 8 8 8 8 8 8 8 8 8 7 7 7 8 8 5 3 3 3 1 1 0 2 4 5 5 5 6 8
5 4 4 4 3 3 5 5 5 4 5 6 7 7 7 6 6 7 7 7 7 7 7 6 6 5 4 5 6 5 4 3 1 1 1 1 4 5 5 5 7 9 9
6 6 5 5 4 4 4 5 4 4 5 6 7 6 7 6 6 6 6 5 5 4 4 4 4 3 3 4 5 4 4 3 2 1 3 4 4 5 4 5 7 7 5
8 7 7 6 5 5 5 5 5 5 6 7 6 6 6 6 5 4 4 3 3 3 3 3 2 2 1 1 1 1 1 2 2 2 1 2 3 4 5 5 4 4 4
8 8 7 7 7 6 6 6 6 6 7 7 6 5 5 5 5 5 4 4 4 3 2 2 1 0 0 1 3 3 3 3 3 3 3 3 3 3 3 3 3 4 4
9 8 8 8 7 7 7 6 6 6 7 6 5 4 4 3 3 4 5 6 6 6 5 3 1 1 2 3 3 4 4 5 5 4 4 4 4 4 4 4 4 4 4
Wind_Direction
289 298 299 293 278 263 254 249 246 239 235 229 224 222 223 224 223 224 227 227 224 216 213 211 208 202 203 202 200 193 190 186 171 168 187 202 213 216 207 206 201 196 195
326 347 338 326 305 287 274 263 253 248 241 234 232 231 231 230 228 224 225 226 224 220 214 214 209 204 206 204 201 192 190 180 184 186 183 202 203 214 213 208 210 205 197
37 30 23 18 3 340 316 293 278 266 255 249 243 239 236 235 231 228 225 223 222 220 216 219 216 207 206 205 202 196 193 188 193 201 196 199 210 182 190 210 209 209 204
38 30 23 21 13 0 340 315 299 282 269 257 245 239 233 231 230 230 229 227 222 221 218 219 220 213 211 210 204 202 203 196 190 202 228 247 238 184 176 192 209 211 212
29 24 17 8 4 358 347 335 325 308 291 266 251 248 245 245 245 240 238 235 227 220 217 217 218 217 215 217 209 204 206 204 198 191 188 204 221 233 203 182 181 199 209
16 14 9 0 358 356 350 340 332 326 317 293 267 250 251 250 249 245 243 240 234 224 219 215 216 217 217 221 216 208 210 209 209 200 193 188 189 200 210 201 170 180 175
360 0 359 355 351 348 344 336 330 324 321 309 290 273 262 257 253 250 246 243 240 230 222 215 218 218 219 222 220 214 213 214 214 207 206 208 207 184 196 192 154 148 140
352 351 351 347 344 341 337 334 329 321 319 313 303 291 277 265 259 255 253 250 246 240 230 220 220 219 218 218 217 214 213 213 215 213 204 196 181 167 167 161 149 145 152
347 350 350 347 342 338 336 332 325 320 318 315 309 299 290 277 270 267 261 257 253 251 238 223 218 217 213 209 204 207 205 201 202 194 177 156 140 130 118 119 140 151 160
349 353 351 349 344 339 334 332 329 324 321 318 314 307 300 292 283 276 267 260 257 250 239 227 217 210 203 196 192 189 186 182 174 159 154 141 133 118 108 103 88 87 119
351 352 352 352 349 347 346 345 343 337 333 329 322 314 309 304 296 285 279 273 263 250 237 224 213 201 192 185 181 178 170 164 155 152 147 138 133 123 112 102 95 90 97
355 355 356 356 358 358 356 355 352 347 343 337 332 328 323 318 313 309 306 298 282 261 237 208 191 185 178 174 173 167 162 158 154 148 140 136 130 120 116 110 108 112 112
356 358 3 5 3 1 360 359 358 353 348 346 344 345 345 343 344 348 351 356 7 35 82 138 156 159 157 156 155 151 145 143 139 138 136 133 128 122 121 121 125 128 133
358 1 3 5 4 3 2 1 1 358 357 360 3 5 4 2 6 18 32 39 50 60 71 85 98 112 121 125 127 127 125 121 117 116 119 121 124 129 132 132 137 141 155
359 3 2 1 2 3 4 4 4 5 6 13 20 19 19 23 29 39 50 57 62 66 73 81 85 91 97 109 115 116 116 114 109 103 102 104 115 129 135 140 152 165 185
359 3 2 2 3 3 3 6 10 12 16 26 29 29 36 43 46 50 59 66 69 72 75 79 84 85 93 110 111 111 107 107 107 105 100 104 109 128 137 153 177 196 215
360 4 3 5 4 6 7 12 15 21 30 35 37 38 44 51 53 58 62 65 69 73 76 80 85 92 102 105 104 101 97 96 98 102 108 114 120 118 130 160 213 233 248
18 16 10 11 12 14 21 27 32 37 42 42 43 45 53 60 61 63 65 66 69 72 74 76 80 85 92 96 97 96 91 94 97 103 115 122 130 141 182 214 233 246 250
72 44 33 26 29 31 33 46 51 50 51 48 48 50 59 66 67 66 65 66 70 70 70 72 78 83 88 92 97 98 98 102 106 113 119 124 135 186 252 253 258 271 271
123 102 84 69 59 52 55 64 61 58 53 52 56 59 65 72 74 74 72 71 73 74 75 75 78 89 96 100 103 106 109 115 121 125 125 115 319 287 285 282 277 283 294
140 131 115 97 77 76 84 79 71 61 59 66 70 69 71 75 79 80 80 83 84 85 85 86 83 87 99 108 108 104 100 109 116 115 100 49 315 307 310 304 294 296 299
158 152 139 123 109 110 110 96 81 79 85 87 83 79 78 81 83 88 88 91 97 97 97 97 92 82 84 89 97 88 76 63 55 17 340 328 313 315 317 307 302 299 296
167 164 159 146 135 133 136 122 116 119 113 102 93 90 88 84 87 92 96 98 99 102 106 107 104 95 77 75 71 61 50 28 343 334 328 324 323 313 299 295 299 296 281
176 171 171 167 155 147 144 135 137 137 128 115 108 104 100 94 90 88 88 92 96 103 107 104 105 107 103 78 47 16 347 318 300 287 281 294 298 286 287 290 280 272 276
179 179 182 176 165 158 152 150 152 149 135 124 117 112 104 104 95 83 70 71 63 47 67 81 84 68 234 353 330 320 317 316 316 297 277 279 283 281 281 278 276 273 268
178 181 183 178 172 167 161 160 162 159 146 137 135 128 123 117 114 112 101 76 77 87 82 78 42 334 312 316 317 319 318 313 311 283 279 285 289 296 300 298 294 288 280